Location: Unspecified
(0.0000°N, 0.0000°E)
Time: 22:19:49
(UTC+00:00)

Vanguard 3 - Visible Passes

Search period start: 27 October 2021 00:00
Search period end: 06 November 2021 00:00
Orbit: 510 x 3259 km, 33.3° (Epoch: 27 October)

Date Brightness Start Highest point End Pass type
(mag) Time Alt. Az. Time Alt. Az. Time Alt. Az.
27 Oct 10.7 00:48:24 36° SE 00:48:24 36° SE 00:57:13 10° SE visible
27 Oct 10.7 02:52:53 30° SW 02:56:05 31° SSW 03:10:30 10° SSE visible
27 Oct 11.2 05:10:20 10° SW 05:16:02 12° SSW 05:21:01 10° S visible
27 Oct 10.6 20:53:33 10° NNW 20:54:29 13° NNW 20:54:29 13° NNW visible
27 Oct 11.3 23:37:41 17° SE 23:37:41 17° SE 23:40:23 10° SE visible
28 Oct 10.5 01:42:09 42° S 01:42:09 42° S 01:55:29 10° SE visible
28 Oct 11.1 03:46:38 12° WSW 03:57:30 19° SSW 04:07:48 10° SSE visible
28 Oct 10.2 19:41:21 10° N 19:44:22 15° NNE 19:44:22 15° NNE visible
28 Oct11.122:26:52ESE22:26:52ESE21:48:55NWvisible
29 Oct 10.8 00:31:21 32° SSE 00:31:21 32° SSE 00:39:33 10° SE visible
29 Oct 10.8 02:35:49 28° SW 02:38:51 29° SSW 02:53:16 10° SSE visible
29 Oct 11.2 04:53:17 10° SW 04:59:44 13° SSW 05:05:22 10° S visible
29 Oct 10.3 20:36:50 10° NNW 20:38:53 18° NNW 20:38:53 18° NNW visible
29 Oct 11.4 23:20:28 15° SE 23:20:28 15° SE 23:22:37 10° SE visible
30 Oct 10.6 01:24:56 37° S 01:24:56 37° S 01:37:55 10° SE visible
30 Oct 11.2 03:29:24 10° SW 03:40:48 18° SSW 03:51:04 10° SSE visible
30 Oct 10.0 19:24:39 10° N 19:28:56 18° NNE 19:28:56 18° NNE visible
31 Oct 10.9 00:13:58 29° SSE 00:13:58 29° SSE 00:21:45 10° SE visible
31 Oct 10.9 02:18:26 25° SW 02:21:44 26° SSW 02:35:59 10° SSE visible
31 Oct 11.3 04:35:58 10° SSW 04:43:27 13° S 04:49:55 10° SSE visible
31 Oct 9.9 20:20:09 10° NNW 20:23:37 24° N 20:23:37 24° N visible
31 Oct 11.4 23:02:57 14° SE 23:02:57 14° SE 23:04:42 10° SE visible
01 Nov 10.8 01:07:25 33° S 01:07:25 33° S 01:20:14 10° SSE visible
01 Nov 11.3 03:12:41 10° SW 03:24:11 18° SSW 03:34:26 10° SSE visible
01 Nov 9.8 19:07:58 10° N 19:13:52 21° NE 19:13:52 21° NE visible
01 Nov 10.4 21:16:55 10° NW 21:18:27 17° NW 21:18:27 17° NW visible
01 Nov 11.0 23:56:18 27° SSE 23:56:18 27° SSE 00:03:48 10° SE visible
02 Nov 11.0 02:00:45 22° SW 02:04:45 24° SSW 02:18:40 10° SSE visible
02 Nov 11.4 04:18:28 10° SSW 04:27:10 15° S 04:34:35 10° SSE visible
02 Nov 9.4 20:03:34 10° NNW 20:08:50 35° N 20:08:50 35° N visible
02 Nov 11.1 22:45:08 13° SE 22:45:08 13° SE 22:46:38 10° SE visible
03 Nov 10.9 00:49:34 30° S 00:49:34 30° S 01:02:27 10° SSE visible
03 Nov 11.3 02:56:18 10° SW 03:07:37 17° S 03:17:56 10° SSE visible
03 Nov 11.3 05:20:20 10° SSW 05:29:35 17° S 05:36:49 10° SE visible
03 Nov 9.5 18:51:19 10° N 18:57:34 23° NE 18:59:22 22° NE visible
03 Nov 9.9 21:00:26 10° NW 21:03:58 30° NW 21:03:58 30° NW visible
03 Nov 11.0 23:38:18 26° SSE 23:38:18 26° SSE 23:45:43 10° SE visible
04 Nov 11.1 01:42:43 20° SW 01:47:53 22° SSW 02:01:20 10° SSE visible
04 Nov 11.4 04:00:48 10° SSW 04:10:48 16° S 04:19:17 10° SE visible
04 Nov 8.9 19:47:04 10° NNW 19:54:41 50° NNE 19:54:41 50° NNE visible
04 Nov 10.7 21:58:26 10° WNW 22:26:55 13° SE 22:28:27 10° SE visible
05 Nov 10.9 00:31:21 28° S 00:31:21 28° S 00:44:34 10° SSE visible
05 Nov 11.4 02:39:49 10° SW 02:51:06 17° S 03:01:34 10° SSE visible
05 Nov 11.2 05:01:49 10° SSW 05:13:12 20° SSE 05:21:49 10° SE visible
05 Nov 9.3 18:34:43 10° N 18:40:42 25° NE 18:45:39 18° ENE visible
05 Nov 9.1 20:44:03 10° NW 21:15:26 - SE 20:50:17 55° WNW visible
05 Nov 11.0 23:19:50 25° SSE 23:19:50 25° SSE 23:27:32 10° SE visible
